Beale Air Force Base, CA

6:22 AM PST on February 13, 2016 (GMT -0800)
Beale Air Force Base

Weather History for KBAB - January, 2013

Change the Weather History Date:

Monday, January 28, 2013

  Actual Average Record
Temperature  
Mean Temperature 44 °F -  
Max Temperature 55 °F 54 °F 66 °F (2014)
Min Temperature 34 °F 40 °F 30 °F (2002)
Degree Days  
Heating Degree Days 20    
Moisture  
Dew Point 34 °F    
Average Humidity 72    
Maximum Humidity 96    
Minimum Humidity 45    
Precipitation  
Precipitation 0.00 in - - ()
Sea Level Pressure  
Sea Level Pressure 30.20 in    
Wind  
Wind Speed 3 mph (NNE)    
Max Wind Speed 16 mph    
Max Gust Speed -    
Visibility 10 miles    
Events      
Averages and records for this station are not official NWS values.
T = Trace of Precipitation, MM = Missing Value Source: NWS Daily Summary

Daily Weather History Graph

Daily Weather History Graph

Search for Another Location

Airport or City:

Trip Planner

Search our weather history database for the weather conditions in past years. The results will help you decide how hot, cold, wet, or windy it might be!

Date:

Astronomy

Jan. 28, 2013 Rise Set
Actual Time 7:15 AM PST 5:22 PM PST
Civil Twilight 6:47 AM PST 5:50 PM PST
Nautical Twilight 6:14 AM PST 6:23 PM PST
Astronomical Twilight 5:43 AM PST 6:54 PM PST
Moon 7:21 PM PST (1/28) 7:45 AM PST (1/28)
Length of Visible Light 11h 03m
Length of Day
10h 06m
Full, 97% of the Moon is Illuminated
Jan 28
Full
Feb 3
Last Quarter
Feb 9
New
Feb 17
First Quarter
Feb 25
Full

Hourly Weather History & Observations

Time (PST) Temp. Windchill Dew Point Humidity Pressure Visibility Wind Dir Wind Speed Gust Speed Precip Events Conditions
12:58 AM 37.6 °F - 34.0 °F 87% 30.14 in 10.0 mi Calm Calm - N/A   Clear
1:58 AM 36.1 °F - 33.4 °F 90% 30.14 in 10.0 mi West 2.3 mph - N/A   Scattered Clouds
2:58 AM 38.5 °F 35.0 °F 32.5 °F 79% 30.14 in 10.0 mi ENE 4.6 mph - N/A   Mostly Cloudy
3:58 AM 36.9 °F 34.3 °F 32.5 °F 84% 30.14 in 10.0 mi East 3.5 mph - N/A   Overcast
4:58 AM 35.4 °F - 32.2 °F 88% 30.14 in 10.0 mi Calm Calm - N/A   Mostly Cloudy
5:58 AM 35.1 °F - 31.3 °F 86% 30.15 in 10.0 mi Calm Calm - N/A   Partly Cloudy
6:58 AM 34.2 °F - 33.1 °F 96% 30.17 in 10.0 mi Calm Calm - N/A   Partly Cloudy
7:58 AM 34.7 °F - 30.9 °F 86% 30.20 in 10.0 mi Calm Calm - N/A   Partly Cloudy
8:58 AM 40.6 °F - 32.9 °F 74% 30.21 in 10.0 mi East 2.3 mph - N/A   Partly Cloudy
9:58 AM 44.8 °F - 33.4 °F 64% 30.22 in 10.0 mi NNE 1.2 mph - N/A   Partly Cloudy
10:58 AM 48.0 °F - 36.5 °F 64% 30.23 in 10.0 mi WNW 5.8 mph - N/A   Partly Cloudy
11:58 AM 51.3 °F - 34.0 °F 52% 30.23 in 10.0 mi WNW 6.9 mph - N/A   Partly Cloudy
12:58 PM 53.8 °F - 34.9 °F 49% 30.21 in 10.0 mi WNW 11.5 mph - N/A   Clear
1:58 PM 55.9 °F - 34.9 °F 45% 30.19 in 10.0 mi NW 16.1 mph - N/A   Clear
2:58 PM 55.9 °F - 35.4 °F 46% 30.19 in 10.0 mi WNW 15.0 mph - N/A   Clear
3:58 PM 55.4 °F - 34.9 °F 46% 30.19 in 10.0 mi NW 12.7 mph - N/A   Partly Cloudy
4:58 PM 53.6 °F - 39.2 °F 58% 30.20 in 10.0 mi SSW 1.2 mph - N/A   Unknown
5:58 PM 48.2 °F - 37.4 °F 66% 30.21 in 10.0 mi SE 1.2 mph - N/A   Partly Cloudy
6:58 PM 47.3 °F - 35.6 °F 64% 30.23 in 10.0 mi SE 2.3 mph - N/A   Partly Cloudy
7:58 PM 43.3 °F 40.7 °F 36.3 °F 76% 30.24 in 10.0 mi NE 4.6 mph - N/A   Clear
8:58 PM 41.7 °F - 35.8 °F 79% 30.24 in 10.0 mi ENE 2.3 mph - N/A   Clear
9:58 PM 39.9 °F - 36.3 °F 87% 30.25 in 10.0 mi Calm Calm - N/A   Clear
10:58 PM 40.5 °F 37.3 °F 35.6 °F 83% 30.26 in 10.0 mi ENE 4.6 mph - N/A   Clear
11:58 PM 39.2 °F 35.9 °F 34.3 °F 83% 30.26 in 10.0 mi NE 4.6 mph - N/A   Clear